User: anonymous
Location: Unspecified
(0.0000°N, 0.0000°E)
Time: 10:20:58
(UTC+00:00)
Language:

GOSAT - Orbit

View from above orbital plane
View from above orbital plane
View from above satellite
View from above satellite

Ground track
Ground track

The orbit data is extracted from the following two-line orbital elements,

1 33492U 09002A   14208.83871049  .00000132  00000-0  31764-4 0  7671
2 33492 098.0536 317.7280 0001710 074.8742 285.2651 14.67557266295041
Epoch (UTC): 27 July 2014 20:07:44
Eccentricity: 0.0001710
inclination: 98.0536°
perigee height: 667 km
apogee height: 670 km
right ascension of ascending node: 317.7280°
argument of perigee: 74.8742°
revolutions per day: 14.67557266
mean anomaly at epoch: 285.2651°
orbit number at epoch: 29504

The dashed part of the orbit path shows where the satellite is in the earth's shadow,  

DLR